This is the latest recevied weather packets stored in our database for station/object KL1SF-7. If no packets are shown the sender has not sent any weather packets the latest 10 day(s).
| Time | Temp. | Humidity | Pressure | Rain* | Wind** | Luminosity | Snow |
|---|---|---|---|---|---|---|---|
| 1777794817 | 11.11° C | 25% | 1019.7 hPa | 0 mm | - | - | - |
| 1777794207 | 11.11° C | 24% | 1019.7 hPa | 0 mm | - | - | - |
| 1777793619 | 11.11° C | 23% | 1019.9 hPa | 0 mm | - | - | - |
| 1777793020 | 11.67° C | 22% | 1020.2 hPa | 0 mm | - | - | - |
| 1777792410 | 11.67° C | 21% | 1020.2 hPa | 0 mm | - | - | - |
| 1777791822 | 12.22° C | 20% | 1019.8 hPa | 0 mm | - | - | - |
| 1777791206 | 12.22° C | 20% | 1019.9 hPa | 0 mm | - | - | - |
| 1777790616 | 12.78° C | 19% | 1019.9 hPa | 0 mm | - | - | - |
| 1777790029 | 12.78° C | 19% | 1019.9 hPa | 0 mm | - | - | - |
| 1777789409 | 13.33° C | 18% | 1019.8 hPa | 0 mm | - | - | - |
| 1777788819 | 13.33° C | 18% | 1019.8 hPa | 0 mm | - | - | - |
| 1777788212 | 13.89° C | 17% | 1019.8 hPa | 0 mm | - | - | - |
| 1777787617 | 13.89° C | 17% | 1019.8 hPa | 0 mm | - | - | - |
| 1777787006 | 13.89° C | 17% | 1019.8 hPa | 0 mm | - | - | - |
| 1777786419 | 13.89° C | 16% | 1019.8 hPa | 0 mm | - | - | - |
| 1777785820 | 13.89° C | 16% | 1019.9 hPa | 0 mm | - | - | - |
| 1777785210 | 13.89° C | 16% | 1019.9 hPa | 0 mm | - | - | - |
| 1777784622 | 13.89° C | 16% | 1019.9 hPa | 0 mm | - | - | - |
| 1777784007 | 14.44° C | 16% | 1019.9 hPa | 0 mm | - | - | - |
| 1777783417 | 14.44° C | 16% | 1019.9 hPa | 0 mm | - | - | - |
| 1777782830 | 13.89° C | 16% | 1019.8 hPa | 0 mm | - | - | - |
| 1777782210 | 13.89° C | 16% | 1019.7 hPa | 0 mm | - | - | - |
| 1777781620 | 13.89° C | 16% | 1019.7 hPa | 0 mm | - | - | - |
| 1777781013 | 13.89° C | 16% | 1019.2 hPa | 0 mm | - | - | - |
| 1777780421 | 13.33° C | 16% | 1019.5 hPa | 0 mm | - | - | - |
* Rain since midnight (hover to see other rain measurements)
** Current wind speed in m/s (hover to see current wind gust speed)